Theta_e
346 347 346 345 344 342 342 345 347 347 348 349 349 350 349 349 349 349 350 350 350 350 349 348 348 347 346 346 346 345 341 338 337 337 336 336 336 339 339 339 340 340 342 343 343 343 342 344 345 345 346 347 346 345 345 345 344 343 342 342 341 340 340 340 340 343 345 346 345 345 345 344 344 344 343 343 342 342 342 341 341 340 339 339 334
347 349 348 345 343 341 342 344 346 347 348 348 349 349 349 349 349 350 350 350 350 350 349 348 348 347 346 347 347 346 342 338 337 338 338 338 337 338 339 339 341 341 341 341 340 340 340 342 344 345 346 346 345 345 345 345 344 343 342 342 341 341 343 342 342 344 346 346 345 345 344 343 343 343 342 342 341 341 341 341 340 338 339 338 330
349 349 349 348 346 344 343 345 346 347 348 349 348 349 350 350 351 351 349 349 348 349 348 347 347 346 346 347 347 347 344 339 337 338 338 339 339 339 339 340 342 342 342 341 340 340 340 341 344 344 344 344 344 344 344 344 343 342 341 342 343 344 344 344 344 344 345 346 345 345 344 343 343 343 342 342 341 340 340 339 337 337 339 335 324
349 349 349 349 348 348 347 347 347 348 349 349 349 349 351 352 352 352 349 348 347 347 347 346 346 345 345 347 348 347 346 342 338 338 338 339 340 340 340 342 343 343 341 341 341 342 341 343 344 344 343 343 343 343 342 342 342 341 342 344 344 345 345 345 346 345 345 345 344 345 344 344 344 342 342 341 340 339 339 337 334 336 338 330 319
348 348 348 348 348 349 348 349 349 349 350 350 350 350 351 352 352 352 350 348 348 347 346 345 345 345 345 346 348 347 347 346 342 339 339 339 340 341 341 341 342 343 341 341 342 343 344 345 345 344 344 344 344 344 343 344 344 343 343 345 346 345 345 345 346 346 345 344 344 344 344 344 343 342 341 340 340 338 338 335 329 332 334 323 316
348 348 349 349 349 349 349 350 349 351 351 351 350 350 351 352 351 352 350 349 348 347 347 345 345 345 345 345 347 347 347 347 344 342 340 339 339 340 340 341 341 341 341 341 341 342 344 345 345 345 345 345 345 344 345 346 345 345 346 346 346 345 345 345 346 346 345 344 344 344 344 344 342 341 340 339 338 336 335 331 324 328 329 318 315
348 349 350 350 349 350 350 350 350 351 351 351 350 350 350 352 351 351 350 350 349 347 346 346 346 345 345 346 346 347 347 347 346 344 343 341 340 340 340 341 341 341 341 341 341 341 342 343 343 344 344 344 345 345 344 346 345 345 346 346 346 346 345 345 345 346 345 345 345 344 344 343 341 340 340 338 337 335 333 327 321 323 324 317 315
349 349 351 351 350 350 351 351 350 351 351 351 351 351 350 350 350 350 349 350 348 345 344 345 346 345 345 346 346 347 347 347 347 346 345 344 342 342 342 342 341 341 341 341 341 341 341 341 342 343 343 343 343 343 343 345 346 347 346 346 346 346 346 345 345 346 345 344 344 344 343 342 341 340 338 336 334 332 329 323 317 319 320 317 316
349 350 351 352 351 351 351 352 351 351 350 350 350 351 350 350 350 349 349 349 348 346 344 344 345 346 346 346 346 346 346 347 346 346 347 346 344 344 343 343 344 342 342 342 342 341 341 341 341 342 342 342 342 342 343 343 345 347 347 346 346 346 346 346 345 345 345 344 344 343 343 342 342 339 335 331 325 323 321 318 317 317 318 317 317
350 350 351 351 352 351 351 352 352 351 350 349 349 351 351 350 349 349 349 349 348 347 345 344 345 346 346 346 346 346 346 346 345 346 346 346 345 345 345 344 344 344 344 344 343 343 342 341 340 339 340 340 340 341 341 341 342 344 346 346 346 346 345 345 344 344 344 344 343 343 342 342 340 338 334 327 319 317 316 316 317 317 318 318 317
350 350 350 352 352 352 353 352 352 351 349 348 349 351 351 350 350 350 349 349 348 347 346 346 345 346 346 346 346 346 346 346 346 346 346 346 345 345 344 344 344 344 344 345 345 344 343 342 340 338 340 340 340 339 339 339 340 340 343 345 346 345 345 344 343 343 343 342 342 343 342 341 340 336 331 323 317 317 317 317 318 318 318 318 318
351 351 351 352 352 351 352 351 351 350 349 348 349 350 352 350 350 350 350 349 348 347 346 345 345 345 346 346 345 346 346 345 345 346 346 346 345 345 345 344 343 344 343 344 345 345 344 342 341 341 341 341 341 340 337 337 337 337 338 341 342 342 343 343 343 343 342 341 341 342 340 338 336 331 324 320 318 318 318 318 318 318 319 318 318
351 353 352 351 351 351 352 351 351 351 350 348 348 349 351 352 352 351 350 349 348 347 344 343 344 344 344 345 345 344 345 345 344 345 345 345 345 345 345 345 343 343 343 343 344 345 344 342 341 342 342 342 342 341 340 341 340 338 337 336 336 336 337 338 339 339 337 336 335 335 332 331 328 324 320 319 319 319 319 318 318 318 318 319 319
351 352 352 351 350 351 351 351 352 351 350 349 349 349 350 351 352 352 351 349 348 347 344 344 344 344 344 345 344 344 343 344 344 345 345 346 345 344 344 345 344 342 343 343 342 344 345 343 343 343 343 343 342 341 342 343 343 342 340 338 336 335 334 333 332 329 326 325 325 324 324 324 322 321 320 320 320 319 320 319 319 318 318 318 319
351 351 351 350 350 351 350 352 353 351 350 349 348 348 348 350 352 353 352 350 350 348 347 346 345 344 344 346 346 348 348 345 344 345 344 345 345 344 343 343 344 342 342 342 342 342 344 344 343 344 344 344 342 340 341 342 343 343 342 341 339 337 335 332 329 326 322 320 320 320 320 320 320 320 320 320 320 320 320 319 319 319 318 319 318
350 351 351 350 350 351 351 353 354 351 350 349 348 347 349 351 353 354 353 352 351 350 348 348 346 343 345 347 344 347 354 349 342 343 344 344 345 344 343 342 343 343 342 342 342 343 343 344 343 344 344 344 343 340 339 339 341 342 342 341 339 337 335 331 327 325 323 320 319 319 320 320 321 321 321 321 321 321 320 320 320 320 320 319 319
349 352 352 351 351 351 352 353 353 352 352 350 349 349 349 352 354 354 353 352 352 351 350 349 348 345 346 350 348 348 357 352 342 343 344 343 345 344 343 342 342 342 341 342 342 343 343 343 343 343 343 344 344 343 339 338 338 339 338 336 336 336 334 329 325 323 322 322 320 320 320 321 321 322 322 322 322 322 321 321 320 321 320 320 320
349 352 352 352 352 352 353 354 354 353 353 351 350 350 350 350 351 353 353 353 352 352 352 351 349 347 345 349 348 349 353 348 345 348 345 342 344 344 343 342 341 341 341 341 342 343 344 343 342 343 343 343 344 345 343 341 339 339 337 335 336 337 337 335 332 328 324 322 322 323 323 322 323 323 322 322 322 322 322 322 322 322 322 321 322
347 349 350 352 354 353 352 354 354 353 353 352 352 352 351 350 349 352 354 354 353 352 352 351 350 348 347 347 347 347 347 346 346 347 348 346 342 340 341 341 341 341 341 341 342 342 343 344 342 343 343 343 343 345 345 344 343 342 340 338 337 339 341 342 341 337 331 327 326 327 326 325 325 324 325 324 324 324 324 324 324 323 323 323 323
347 348 349 351 355 354 352 354 354 354 354 353 353 352 351 351 350 352 354 354 352 352 350 350 350 349 348 347 347 347 344 345 345 344 348 353 349 345 341 340 341 341 340 341 341 342 343 343 343 342 343 343 343 344 345 345 345 345 343 341 341 342 342 342 342 341 338 337 336 335 334 333 332 330 329 328 327 327 327 326 327 326 326 325 325
348 349 348 349 353 354 354 354 354 354 354 354 354 353 352 352 351 351 354 353 353 353 350 349 350 348 348 347 347 347 343 342 343 343 346 350 352 350 344 340 341 340 340 340 341 342 342 343 343 343 343 343 343 343 344 345 345 345 344 344 344 344 344 343 343 343 342 343 342 343 342 341 341 340 338 337 335 334 333 332 332 331 331 330 329
349 349 349 348 351 354 355 355 355 354 355 355 354 354 353 352 352 351 353 352 353 354 351 348 349 349 348 347 347 346 343 341 341 342 344 344 345 346 343 342 343 341 341 341 341 342 342 343 343 343 343 343 343 343 344 344 344 345 344 344 345 344 345 345 344 344 344 344 345 344 346 345 345 346 344 344 342 341 340 340 339 338 337 336 335
351 349 349 349 351 354 354 355 356 355 355 356 355 354 354 353 352 353 353 352 352 354 353 351 351 352 350 349 348 347 344 343 343 343 344 343 343 344 344 344 344 343 343 342 341 341 341 342 342 342 342 342 343 343 343 343 343 343 344 344 344 345 345 345 345 345 344 344 344 345 346 346 346 346 346 346 346 345 345 344 343 343 343 342 341
353 352 351 351 352 354 353 354 356 355 355 356 355 355 354 354 353 353 354 354 353 353 354 354 353 354 353 351 350 348 346 345 346 346 347 344 344 344 344 344 344 343 345 344 343 342 341 341 341 341 342 342 342 343 342 343 343 342 344 344 344 344 344 345 344 345 344 344 344 345 345 346 346 347 346 346 346 346 346 346 346 346 346 346 345
354 353 352 353 353 353 354 355 355 355 354 355 356 355 355 355 354 354 354 355 353 352 353 354 354 354 354 353 353 351 346 345 348 349 350 348 346 343 342 344 343 344 346 347 345 344 342 342 342 341 342 341 341 342 342 342 342 342 343 343 344 344 344 344 344 345 344 345 345 345 345 345 346 347 347 347 346 347 347 348 348 349 349 349 349
352 351 350 353 353 353 354 355 355 355 354 354 355 355 356 356 355 354 354 354 353 352 353 354 355 355 355 353 353 352 348 348 351 352 352 351 349 345 342 343 344 344 345 346 346 346 346 345 344 343 342 342 341 341 342 341 341 341 342 343 344 343 344 344 344 344 344 345 345 345 346 346 347 348 348 348 349 349 350 350 351 351 351 351 351
350 347 347 351 354 353 353 354 355 354 353 353 354 355 356 356 355 355 354 354 355 354 354 354 355 356 354 353 354 353 351 351 353 352 354 353 352 349 345 344 347 347 345 345 344 344 346 347 347 346 346 345 344 343 342 342 341 341 341 342 343 344 345 346 346 346 346 347 347 348 348 349 350 350 350 351 352 353 353 352 352 352 352 353 353
348 347 347 350 353 354 353 353 354 354 353 352 353 355 356 355 354 354 354 355 356 356 356 355 354 354 355 355 356 354 353 353 353 353 354 354 352 350 346 345 348 353 355 358 352 344 347 350 347 347 347 345 345 343 342 342 341 341 342 344 347 349 350 350 350 350 350 350 350 351 352 353 353 354 355 355 355 354 354 353 354 354 355 354 354
348 346 347 349 352 354 354 354 353 354 353 352 351 354 355 355 355 354 354 354 355 355 355 355 355 354 355 356 357 356 355 355 355 354 354 354 353 348 346 344 346 351 357 365 362 349 346 350 348 347 347 345 345 345 344 344 343 344 346 347 350 350 351 352 352 351 352 353 354 355 356 357 357 358 358 357 356 356 355 356 356 355 354 353 352
347 346 347 348 351 353 353 353 354 353 354 352 352 353 354 354 354 354 354 354 354 354 355 355 355 355 356 358 358 357 357 356 355 354 353 354 353 348 346 346 347 349 348 356 362 351 343 346 344 345 346 343 343 344 344 346 345 346 347 347 348 350 350 351 352 354 356 357 358 359 359 359 360 359 359 357 357 357 357 356 355 353 352 351 351
346 346 347 347 349 352 353 353 353 354 354 353 353 354 355 354 354 354 354 354 354 354 355 355 355 355 356 356 357 357 357 357 356 355 354 355 354 350 349 349 350 351 348 349 356 350 341 341 342 343 345 344 343 343 344 345 346 347 347 347 349 351 351 353 355 356 356 358 358 359 360 360 360 360 359 358 357 356 355 354 351 350 350 350 351
344 344 346 347 348 350 351 352 353 353 353 353 353 354 355 355 354 355 355 354 354 354 354 355 355 355 355 355 356 356 356 357 356 356 356 356 356 354 353 352 352 352 350 349 352 349 344 345 346 348 350 349 346 345 346 346 346 348 348 350 351 350 351 353 354 355 356 357 358 359 360 359 358 358 358 358 356 354 352 350 349 349 350 351 351
344 343 345 346 348 348 349 350 351 351 352 352 353 353 354 355 356 355 355 355 355 354 354 355 354 355 354 354 354 355 355 356 355 356 357 356 357 356 354 355 353 353 351 351 351 350 350 351 353 353 354 354 350 347 349 349 348 350 350 351 350 349 350 353 355 356 356 357 359 359 358 357 357 357 355 354 352 350 349 349 350 350 350 350 348
344 344 343 345 347 348 348 349 349 349 351 351 352 352 352 354 354 355 355 355 355 355 354 354 354 353 354 354 353 353 354 355 356 355 356 356 356 357 356 355 355 355 354 354 353 352 352 354 355 355 355 356 353 350 351 353 351 351 352 351 348 347 351 355 357 356 357 358 358 357 355 355 354 352 351 350 349 349 349 349 350 349 348 346 345
346 344 343 344 346 348 348 348 349 349 350 350 352 353 352 352 353 353 355 354 355 355 354 352 351 351 351 353 354 353 353 354 354 354 356 356 356 356 356 356 356 356 356 356 355 353 354 355 356 356 356 357 354 352 353 354 353 354 353 350 349 349 352 356 357 358 359 359 356 355 355 352 348 348 348 348 348 349 349 348 347 345 344 344 344
344 343 343 344 345 347 348 348 349 349 349 350 351 351 352 352 352 352 352 353 353 355 354 352 351 350 350 351 353 353 352 352 353 353 354 355 356 356 356 356 355 356 356 356 356 356 355 356 356 357 356 356 354 354 355 355 354 354 353 351 350 351 353 357 359 360 359 357 355 356 353 346 345 347 347 347 346 346 345 345 343 343 342 342 343
343 343 344 345 346 347 347 348 347 347 346 348 349 350 349 350 352 352 351 351 352 353 354 353 353 352 352 351 350 352 353 352 352 354 354 353 353 354 354 355 355 355 356 356 356 356 356 356 356 356 355 356 355 355 354 355 355 354 354 352 351 352 355 358 360 360 357 355 356 355 349 344 344 346 346 347 346 344 342 342 342 341 341 341 341
342 341 343 344 345 345 345 344 343 340 340 343 345 345 345 348 351 352 352 352 352 352 353 353 352 352 352 351 350 351 352 351 351 352 354 354 354 353 354 354 355 355 355 355 355 355 355 356 356 356 356 355 355 355 354 355 356 356 355 353 352 354 358 359 360 357 354 355 357 354 346 343 343 344 347 347 344 341 340 340 340 340 339 339 338
343 342 341 341 341 342 342 340 337 335 336 340 343 342 343 345 349 352 352 352 352 352 353 353 353 353 353 351 350 350 352 353 352 351 352 353 354 354 354 354 354 354 355 355 355 354 354 355 355 356 355 355 355 355 355 356 356 356 356 355 355 356 358 360 358 355 354 356 357 352 346 344 344 345 348 346 343 341 339 339 339 338 337 337 336
344 343 342 341 339 340 339 338 336 334 335 340 344 344 343 345 347 350 351 351 351 352 352 353 353 353 353 353 351 350 349 351 353 352 352 352 353 353 354 354 354 354 354 355 356 355 354 354 355 355 355 355 356 355 356 356 355 356 355 356 357 357 358 359 356 353 354 358 357 352 346 345 345 345 346 344 341 339 338 337 337 336 336 335 335
343 344 343 343 342 341 341 340 339 338 338 339 342 345 346 346 347 348 349 350 350 351 352 353 353 353 352 353 353 351 349 349 350 352 352 352 352 351 351 353 354 354 354 354 355 355 354 354 355 355 355 356 355 355 355 355 355 355 356 356 356 356 358 358 354 352 355 358 357 352 347 346 345 343 344 342 339 338 337 336 335 335 335 334 334
341 341 342 343 344 344 343 343 342 341 341 341 340 342 344 347 348 348 349 350 351 350 352 351 352 351 351 351 351 350 350 350 349 350 350 351 352 352 351 351 352 354 355 355 355 354 355 354 355 355 355 355 355 355 355 355 355 356 356 356 355 355 356 355 351 352 356 357 357 352 347 348 345 340 341 340 337 336 335 335 334 334 334 334 334
341 340 340 341 342 343 344 344 344 344 343 342 341 340 341 344 347 349 349 350 351 351 352 351 351 350 349 350 350 350 351 351 350 349 349 350 352 353 353 352 352 354 355 356 355 354 354 354 354 354 355 355 354 353 355 354 355 355 355 355 355 353 354 353 351 353 356 356 357 352 348 348 345 338 339 339 336 335 334 334 334 334 333 334 333
342 341 340 339 340 340 342 343 343 344 344 342 342 342 341 341 343 346 349 350 350 351 351 351 350 350 350 350 351 351 351 351 350 350 350 350 351 353 353 353 353 354 355 356 356 355 354 354 354 354 354 354 353 353 354 354 354 355 354 353 353 352 352 352 351 354 357 356 355 350 346 348 345 338 337 337 335 334 334 333 333 333 333 333 331
343 341 341 341 340 340 340 341 342 343 343 343 342 342 342 342 342 344 348 349 350 351 351 350 350 350 351 351 352 352 352 351 351 352 351 351 351 352 353 354 355 354 354 355 356 356 355 355 355 355 354 354 354 352 352 354 354 355 353 353 352 352 351 350 351 355 357 355 353 349 346 348 345 338 336 336 334 333 333 332 332 333 332 332 330
345 344 343 342 341 340 340 340 340 341 342 342 342 342 342 342 343 344 346 348 350 350 351 351 351 351 351 352 353 353 352 351 351 351 352 352 351 352 353 354 354 353 352 352 354 355 356 356 355 354 353 352 353 352 351 352 354 354 353 353 353 353 352 352 354 357 356 354 351 347 345 348 346 338 335 335 334 333 332 331 332 332 332 331 328
348 346 345 344 343 342 341 341 341 341 341 341 342 342 342 343 343 345 346 348 350 351 351 351 352 352 352 352 353 353 353 352 352 351 351 351 351 352 352 352 352 352 350 349 350 351 353 353 353 352 351 350 351 351 350 352 354 354 354 353 354 354 354 355 356 356 355 353 350 346 345 348 345 338 334 334 333 332 332 331 332 332 332 329 323
351 349 348 346 346 344 343 343 342 342 342 342 342 342 343 343 344 345 346 348 350 350 351 351 352 352 352 353 353 353 353 353 352 352 352 353 353 353 353 352 352 351 350 349 349 349 350 352 351 350 349 348 349 349 350 352 353 353 353 354 355 356 355 356 356 355 354 352 348 345 345 346 343 337 334 334 333 332 331 331 330 331 330 326 320
353 352 351 349 348 347 346 346 345 344 344 344 344 343 343 344 345 346 347 348 349 350 350 351 351 352 352 353 354 353 354 353 353 353 353 353 354 354 354 353 353 353 352 349 349 351 351 352 352 350 349 349 349 348 350 351 352 353 354 356 356 356 356 355 355 354 354 351 347 346 345 343 339 335 335 335 333 332 332 331 330 331 329 323 318
355 354 353 352 350 349 349 347 347 346 346 346 345 345 344 345 346 347 347 347 349 350 350 350 351 352 353 353 353 353 354 353 353 353 353 354 354 354 354 355 354 354 352 349 350 352 352 352 351 350 348 348 347 348 349 351 353 355 356 358 358 357 355 354 354 354 353 350 348 345 343 338 335 335 336 336 335 334 332 331 330 330 327 321 318
357 356 354 353 352 351 350 349 349 348 347 347 347 346 346 346 346 347 349 348 349 349 349 350 350 352 352 352 353 354 354 354 354 353 354 354 354 354 355 354 354 354 352 351 352 352 352 351 351 349 347 346 346 348 351 353 356 358 359 360 358 357 355 355 354 353 352 351 348 346 341 335 334 335 335 335 336 336 333 331 331 329 325 320 318
Wind_Speed
9 9 8 9 9 9 10 11 11 9 8 7 6 5 5 5 4 4 3 4 5 5 5 5 6 9 9 7 4 4 4 5 6 6 6 6 7 7 6 6 6 6 5 5 5 5 5 5 5 5 4 4 4 4 3 2 2 2 2 2 2 2 3 3 4 4 6 7 8 8 9 9 9 9 9 9 9 9 9 8 9 9 7 7 7
9 9 8 8 9 9 10 10 9 7 7 6 5 5 4 4 3 2 3 4 6 7 7 7 8 11 12 9 6 4 4 5 6 6 6 6 6 6 6 5 5 5 4 4 4 5 5 5 5 4 4 4 4 3 3 2 2 2 2 2 3 3 4 4 5 6 7 8 8 9 9 9 9 9 9 9 9 9 8 8 9 8 6 6 7
9 8 8 8 8 9 9 8 7 6 5 5 4 4 3 3 1 1 3 4 5 7 8 8 9 11 13 12 8 5 5 6 7 7 7 7 7 7 6 5 4 4 4 4 4 5 5 5 4 4 4 4 4 3 3 3 3 3 3 3 4 4 5 6 6 7 8 9 9 9 9 10 9 9 10 9 9 8 8 8 8 6 4 5 6
9 8 8 7 8 8 8 8 7 6 5 5 4 4 3 2 1 1 3 4 5 6 7 8 9 11 13 14 11 7 6 6 7 8 8 8 7 7 7 6 5 5 5 5 5 5 5 4 4 3 3 4 4 3 3 3 4 4 4 4 5 5 6 7 7 8 9 10 10 9 9 9 9 9 10 10 8 8 7 7 8 5 3 5 5
10 9 8 7 8 8 7 7 7 6 6 6 6 5 4 3 2 2 2 4 5 6 8 9 10 11 13 14 13 9 7 6 7 7 7 7 7 7 7 7 7 7 6 6 6 6 5 4 4 4 4 4 4 4 4 5 5 5 5 6 6 7 7 8 9 9 10 10 10 9 10 9 9 9 10 9 8 8 7 7 7 4 2 3 3
10 10 10 9 8 8 8 7 7 7 7 7 7 6 6 5 3 2 2 3 4 5 9 11 11 12 13 14 14 10 8 7 6 6 6 6 6 7 7 7 8 8 8 7 7 6 6 6 5 5 5 5 6 6 6 6 6 7 7 7 8 8 8 9 9 10 10 10 9 9 10 9 9 9 9 8 8 8 7 7 6 4 2 2 2
12 12 11 10 9 8 8 8 8 8 8 8 7 7 7 6 5 5 4 3 2 3 7 12 12 12 12 12 13 11 9 8 7 6 6 6 6 7 7 8 8 8 8 8 7 7 7 7 7 6 7 7 7 7 7 8 8 8 8 8 9 9 9 9 10 10 10 9 9 9 10 9 9 9 9 8 8 8 7 7 6 4 3 2 2
13 13 12 12 11 10 9 8 9 9 8 8 8 8 8 7 7 7 5 3 1 1 5 12 14 12 11 11 11 12 10 9 8 7 6 7 7 7 7 8 8 9 9 8 8 8 8 8 8 8 8 8 8 8 8 9 9 9 9 9 9 9 10 10 10 10 10 9 9 9 9 9 9 9 8 8 8 8 7 7 6 5 4 3 3
14 14 13 12 11 11 10 9 9 8 8 8 9 10 9 9 8 7 5 3 2 1 4 11 14 12 11 10 10 11 11 8 8 8 8 8 7 7 7 7 8 8 9 8 8 8 8 9 9 9 8 8 8 8 9 9 9 9 10 10 9 9 10 10 10 11 11 10 9 9 9 9 9 9 8 8 8 8 7 7 6 5 4 4 4
15 14 13 11 11 11 11 10 9 9 8 9 10 11 10 9 8 7 5 4 3 3 3 7 12 12 12 11 10 10 9 7 7 8 9 8 7 7 6 6 7 8 8 7 7 7 7 8 8 8 8 7 8 8 8 9 9 9 9 9 9 9 10 11 10 10 11 10 10 10 9 9 10 9 9 8 8 8 7 7 6 6 5 5 5
15 15 14 12 11 12 11 10 10 9 9 10 11 11 10 9 8 7 6 5 3 3 3 5 9 11 12 11 10 9 8 8 8 9 9 9 8 7 6 6 6 7 7 6 6 6 6 6 7 7 6 6 7 7 7 8 9 9 9 9 10 10 10 10 10 10 11 11 10 10 10 10 10 9 9 9 8 8 8 7 7 6 6 6 6
15 15 14 13 13 12 12 11 10 10 10 11 11 11 10 8 8 7 6 5 4 3 2 5 8 10 10 10 9 8 8 9 10 11 11 10 9 9 8 7 7 7 6 6 6 5 5 5 5 6 5 5 6 6 6 7 8 8 8 9 9 9 10 10 11 10 11 11 10 10 10 10 10 10 10 9 9 9 8 8 8 8 8 8 7
16 15 15 14 13 13 12 11 11 11 10 10 10 10 9 8 7 6 5 5 5 3 1 4 9 9 8 8 8 7 7 8 10 11 12 11 11 12 12 10 9 8 7 6 6 5 5 4 4 4 5 5 5 5 5 6 7 7 8 8 9 9 10 10 11 11 11 11 11 11 11 11 11 11 10 10 10 10 10 10 9 9 9 9 9
17 15 15 14 14 13 12 12 11 10 9 9 10 9 9 8 7 6 5 6 5 4 2 3 7 8 6 4 4 5 5 7 9 10 11 11 11 13 14 14 12 10 8 8 8 7 6 5 5 5 5 5 5 5 6 6 6 7 7 8 9 9 10 10 11 11 11 11 12 12 11 11 12 12 11 11 11 11 11 11 11 11 11 11 11
17 16 15 15 14 13 13 12 11 10 10 10 9 9 9 8 7 6 6 7 6 5 4 2 4 7 5 1 2 2 3 6 9 11 12 12 11 12 14 15 13 11 10 10 9 8 7 7 7 7 7 7 7 7 7 7 7 7 7 8 9 9 10 11 11 11 12 12 12 12 12 12 13 13 13 13 13 13 13 13 13 13 13 13 13
17 16 15 15 14 14 13 12 11 11 11 11 9 9 9 9 8 7 7 8 7 6 6 3 4 7 4 1 1 2 1 5 7 11 12 12 13 13 13 14 13 12 12 12 10 9 9 9 8 8 8 8 8 8 9 8 8 8 9 9 9 10 10 11 11 11 12 12 12 13 13 13 13 14 14 15 15 15 15 15 15 15 15 15 15
17 16 15 14 13 14 14 12 11 11 11 10 9 8 9 9 9 8 7 8 8 7 7 5 5 7 4 1 1 1 2 2 4 8 11 12 13 13 13 14 14 13 13 13 12 11 10 10 10 10 9 9 9 9 9 9 9 9 9 9 9 10 10 10 11 11 12 12 13 13 13 14 14 14 15 15 16 16 17 17 17 17 17 17 17
18 17 15 14 13 14 14 13 12 11 9 9 8 8 9 10 10 9 7 7 8 7 8 6 5 7 6 3 2 2 3 1 0 3 7 10 12 12 13 15 14 15 15 14 13 12 12 11 11 11 10 10 10 10 9 9 9 9 9 9 8 9 10 10 11 11 12 13 13 14 14 15 15 15 16 16 17 17 18 18 19 19 18 18 18
19 17 15 13 13 14 13 12 12 10 9 9 8 8 9 10 10 10 8 7 8 8 8 8 6 7 7 6 5 6 6 4 3 1 3 6 8 10 12 14 15 16 17 16 15 14 13 12 12 11 11 11 11 11 10 9 9 9 9 8 8 9 10 11 11 11 12 13 14 14 15 16 16 17 17 17 18 18 19 19 20 20 20 20 20
19 17 16 14 13 13 12 12 12 10 9 9 8 8 8 9 10 10 9 8 8 7 8 9 8 8 7 8 7 7 7 5 5 4 2 1 5 7 7 9 13 16 18 18 17 16 16 14 13 13 12 12 12 12 11 10 10 9 9 8 9 10 10 11 12 12 12 13 14 15 16 17 17 18 19 19 20 20 20 21 21 21 22 22 22
18 17 17 15 14 13 12 12 11 10 10 9 8 8 8 9 10 11 11 10 8 6 8 10 10 9 8 8 8 7 5 4 5 4 2 1 3 4 4 5 8 13 17 19 19 18 17 16 16 15 14 13 13 13 13 12 12 11 10 10 10 11 12 12 13 13 14 14 15 16 17 18 19 20 20 21 21 22 22 23 23 24 24 24 24
19 18 17 16 15 14 13 13 12 11 11 10 9 9 9 9 10 11 11 10 9 7 7 8 10 9 8 8 8 7 4 3 3 3 1 0 1 2 3 3 5 7 11 15 18 18 18 18 17 17 16 15 14 14 13 13 13 13 12 12 12 13 13 14 15 15 16 17 18 18 19 20 21 22 22 23 23 24 24 25 25 26 26 26 27
19 18 18 17 16 15 14 14 12 12 11 11 11 10 10 10 11 11 11 10 9 8 7 8 8 9 8 7 7 7 5 3 4 3 2 2 1 2 3 3 4 6 6 8 12 16 17 18 18 17 17 16 15 14 14 14 14 14 14 14 14 15 15 16 17 17 18 19 20 21 22 22 23 24 24 25 25 25 26 26 27 27 28 28 29
20 20 19 18 17 17 16 15 14 13 13 12 12 11 11 11 11 12 11 10 9 9 9 10 9 9 8 7 7 8 7 5 4 4 5 4 3 4 3 3 4 5 6 7 8 10 13 15 16 17 17 16 16 15 15 15 14 14 15 15 15 16 17 18 19 19 20 21 22 22 23 24 24 25 25 26 27 27 28 28 29 29 30 30 30
23 23 22 20 19 18 18 17 16 15 15 14 13 13 12 12 13 12 12 11 10 10 11 12 11 10 8 7 7 8 8 6 6 6 7 7 5 5 4 3 3 4 7 8 7 8 10 11 13 14 15 16 16 16 16 16 15 15 16 17 17 18 19 20 21 21 22 23 23 24 25 25 25 26 26 27 28 28 28 29 30 30 30 30 30
26 25 24 22 20 20 19 19 18 16 17 17 15 13 13 14 14 14 13 12 11 11 11 12 12 11 9 9 9 9 9 8 7 7 7 8 7 6 5 3 4 5 5 6 7 8 9 11 11 11 13 14 15 17 17 17 16 16 17 19 19 19 20 21 22 23 23 24 25 26 26 27 27 27 27 27 27 28 28 28 29 29 29 29 28
25 25 24 23 22 21 20 20 19 18 18 19 18 15 14 14 14 15 15 13 12 12 12 11 12 12 11 10 9 9 9 9 8 7 7 8 9 9 6 3 3 4 4 4 6 8 9 10 9 9 10 11 12 14 15 16 16 16 18 19 20 20 21 21 22 22 23 24 25 26 26 26 26 26 26 26 26 26 26 27 28 28 27 26 24
25 25 25 25 24 23 22 21 20 19 18 19 20 18 16 15 13 13 15 15 14 13 12 12 13 13 12 11 10 10 9 8 8 7 7 8 9 9 8 5 2 2 4 4 4 5 7 7 5 6 8 9 10 10 11 12 13 15 16 17 18 18 18 19 20 21 22 22 22 22 23 23 23 23 24 24 25 25 26 26 26 25 24 23 22
26 25 25 25 25 24 23 23 22 21 19 19 20 20 18 16 14 14 14 15 15 14 12 12 12 12 13 12 11 11 10 9 8 7 7 8 9 8 8 7 5 3 1 3 4 3 4 5 5 5 6 8 10 10 10 10 10 12 13 15 16 17 17 18 19 19 19 19 19 20 20 21 22 22 23 24 24 25 25 24 23 23 23 22 21
28 26 25 26 26 25 25 24 23 22 20 19 20 21 19 17 17 16 14 14 16 15 14 13 12 12 13 13 12 12 11 10 9 9 8 8 8 6 6 7 7 6 4 3 3 4 5 5 6 6 7 8 8 9 9 9 10 11 12 14 15 17 18 18 18 18 18 19 20 20 21 21 22 22 22 22 22 22 22 23 23 22 20 18 16
30 29 28 27 27 27 26 25 24 23 22 21 21 21 20 19 19 18 16 14 16 17 16 15 13 13 14 14 14 14 12 11 10 10 10 9 8 6 6 8 9 9 8 5 3 5 6 6 7 9 10 10 9 9 9 9 10 12 13 14 15 16 17 17 18 18 18 19 20 20 20 20 20 20 20 20 21 21 22 21 20 17 15 14 14
33 32 30 29 28 27 27 26 25 25 23 22 22 22 21 21 21 20 18 16 17 18 17 16 15 15 15 16 16 15 13 12 12 11 11 10 9 8 9 10 10 10 10 7 6 9 11 10 11 11 10 11 11 10 11 12 13 13 14 15 16 17 18 18 18 18 18 18 18 18 18 18 19 19 19 20 20 20 18 16 14 13 12 13 13
34 34 33 32 30 28 27 27 26 25 24 23 23 23 23 23 23 23 22 20 20 20 19 19 18 18 18 18 18 17 15 15 14 13 13 12 10 10 10 11 11 10 10 9 9 12 14 13 13 12 12 13 13 13 15 16 16 16 16 16 17 19 19 19 18 17 16 16 16 16 16 17 18 19 19 18 16 14 12 11 11 12 12 13 14
36 35 34 33 32 30 29 27 26 26 25 25 24 24 25 25 25 25 25 24 23 22 22 22 22 21 20 20 20 19 18 17 16 14 14 14 13 12 12 12 12 11 11 12 11 11 15 17 16 15 15 15 16 17 18 19 19 19 19 18 19 19 19 18 17 16 14 14 14 15 15 16 16 15 13 12 11 10 10 11 12 13 13 13 13
37 36 35 34 34 32 31 30 28 28 27 26 26 26 27 27 27 27 27 26 25 24 24 24 24 23 23 23 22 21 19 20 19 17 15 15 14 14 14 14 14 14 13 14 14 13 16 19 19 18 17 17 19 19 19 20 20 20 20 20 20 18 17 17 16 13 11 12 13 14 15 14 12 10 10 11 10 10 11 12 13 13 12 12 12
38 37 36 35 35 34 33 32 31 30 29 29 28 28 28 29 29 29 28 27 27 26 25 25 24 23 23 24 25 23 21 21 21 20 18 17 17 17 17 17 17 16 15 16 16 16 17 19 20 20 19 20 21 21 21 21 21 20 20 21 20 17 16 16 13 10 10 11 12 14 13 10 9 10 10 10 10 11 12 12 12 11 11 12 12
37 37 37 36 36 35 35 34 33 32 32 31 31 30 30 30 30 30 29 28 27 26 26 25 25 24 23 24 25 24 23 23 23 22 20 20 20 20 20 20 19 19 18 17 17 17 18 20 22 22 20 20 21 22 22 21 20 20 20 20 18 16 16 14 9 8 10 11 12 14 11 7 9 10 10 10 11 12 12 11 11 11 12 12 13
37 37 37 38 37 37 37 36 35 35 34 33 33 32 32 31 31 31 30 29 28 27 26 26 26 26 25 25 25 24 24 24 24 24 22 22 21 22 22 21 20 20 19 19 19 18 19 20 21 22 21 21 22 23 21 20 19 20 20 19 18 17 14 11 8 9 10 9 12 14 9 7 9 10 11 11 12 13 11 10 10 11 12 13 14
36 37 37 38 39 39 39 39 38 37 35 35 34 33 33 32 31 31 31 30 30 29 28 28 27 27 27 27 26 26 25 25 25 25 25 24 24 23 23 22 21 20 20 20 20 19 19 20 20 21 21 21 22 22 21 20 19 18 18 19 20 17 12 9 10 12 10 9 14 13 8 7 9 10 11 11 11 11 9 9 10 11 12 13 13
36 36 37 38 38 39 40 40 40 38 37 36 35 34 34 33 32 32 32 32 31 31 30 30 29 28 28 28 28 28 28 28 27 26 26 26 26 25 25 24 22 22 21 22 22 21 21 20 21 21 21 22 23 23 22 19 16 15 15 16 19 17 12 9 11 12 9 11 16 13 7 6 8 9 11 11 10 8 7 8 10 11 12 13 13
37 37 37 37 36 37 38 39 39 39 38 38 37 36 36 35 34 34 34 33 33 32 32 31 30 30 29 29 29 29 29 29 29 28 27 27 27 27 27 26 24 23 23 23 23 23 22 21 21 21 21 22 24 24 21 17 14 14 15 15 16 15 11 10 12 11 8 12 17 13 7 6 8 10 12 11 9 7 7 8 10 10 11 12 12
38 37 37 36 36 35 36 37 38 38 38 39 39 39 38 37 36 36 35 35 34 34 33 32 32 32 31 31 30 30 29 29 29 29 29 28 27 27 27 26 25 25 24 23 22 22 22 21 22 22 20 22 25 24 19 16 15 15 15 13 14 13 12 12 12 9 6 11 16 12 7 5 7 9 11 9 7 6 7 9 9 10 10 11 13
38 38 37 37 37 36 36 36 37 38 39 40 40 40 40 39 38 37 36 36 35 35 34 34 34 34 33 32 32 31 30 30 30 30 29 29 28 27 27 26 26 26 26 25 24 22 22 21 23 22 20 23 27 25 19 17 17 16 15 14 13 13 13 12 10 8 6 8 12 10 6 4 6 8 8 6 5 5 7 8 8 9 10 11 14
38 37 37 38 38 37 36 36 36 37 39 41 41 42 41 41 40 38 37 36 35 35 35 35 35 35 34 34 33 33 32 32 31 31 30 30 29 29 28 27 26 26 27 28 27 25 24 22 23 23 23 25 28 26 21 18 17 15 15 15 14 14 14 12 11 10 7 7 9 8 4 2 4 7 5 3 4 5 6 7 7 8 10 12 15
37 37 38 38 38 38 37 37 37 38 39 41 42 42 42 43 42 40 39 37 36 35 36 36 36 36 35 34 34 34 34 33 32 32 31 31 31 30 29 29 28 27 27 28 29 29 29 27 25 26 27 27 28 27 24 20 18 16 16 17 17 16 15 14 13 10 7 7 8 5 3 1 2 5 3 3 4 4 5 6 7 8 10 13 17
36 37 38 38 38 38 38 38 39 39 39 41 42 42 43 43 43 42 41 39 38 37 37 36 36 36 36 35 35 35 35 34 34 33 32 32 31 31 30 29 29 28 27 28 28 29 30 30 30 31 32 31 31 30 28 25 22 20 19 18 18 16 15 14 12 9 7 7 7 4 3 4 1 4 1 5 4 3 4 6 7 8 11 14 18
37 38 38 37 38 38 39 39 39 39 40 41 41 42 42 43 43 42 42 41 39 38 38 37 37 37 37 36 36 35 36 35 35 34 33 32 32 31 31 30 30 30 28 28 28 28 29 30 31 32 33 33 32 32 31 29 27 24 21 19 16 15 14 13 10 8 7 6 7 5 5 6 3 2 3 7 5 1 3 6 7 8 11 15 19
36 36 36 37 38 38 39 39 39 40 41 42 41 42 43 43 43 42 42 42 40 40 40 39 38 38 38 37 36 36 36 36 36 35 34 32 31 31 32 32 31 31 30 29 28 28 29 29 30 30 30 30 31 31 31 31 29 26 22 19 16 14 12 11 11 10 8 7 8 7 6 6 4 2 4 8 4 0 3 5 6 7 11 15 19
35 35 36 37 38 38 38 39 39 41 42 42 42 42 43 42 42 42 42 42 41 40 41 41 40 39 39 38 37 36 36 37 37 36 34 32 31 31 32 33 32 32 32 32 30 30 30 29 29 29 28 27 28 29 29 29 28 25 21 18 17 15 12 12 12 11 10 8 8 8 7 6 4 3 6 8 4 1 4 5 5 7 10 14 18
36 36 36 36 37 38 39 40 41 41 41 42 42 42 43 43 42 42 42 41 40 40 41 41 40 40 40 39 38 37 37 38 38 37 35 32 31 31 32 32 31 32 34 34 32 31 31 30 30 30 30 29 28 27 26 25 23 23 22 21 20 17 15 16 15 12 10 9 10 10 7 5 6 5 7 9 6 2 3 4 4 5 8 11 16
36 36 35 35 36 37 39 40 41 41 41 42 42 43 44 44 42 42 42 39 38 39 40 40 40 40 40 39 38 37 38 38 38 38 36 34 32 32 33 31 30 33 35 34 32 31 31 30 30 30 30 30 28 26 24 22 21 22 23 23 22 19 19 19 17 11 6 7 12 12 8 6 8 8 7 8 6 5 5 5 4 4 6 8 13
Wind_Direction
164 161 160 159 161 163 163 164 165 166 166 163 163 162 168 173 183 196 207 221 230 240 233 213 206 205 208 215 202 179 176 178 184 184 177 171 165 162 161 156 153 153 163 177 184 191 196 198 201 206 204 209 220 217 212 218 223 236 257 270 297 323 337 348 352 348 343 340 340 340 338 341 344 340 343 345 344 345 346 346 338 345 359 352 356
172 168 163 160 164 169 170 173 174 174 172 167 167 167 169 179 197 227 246 244 238 241 238 221 211 208 207 213 214 196 188 187 185 186 183 178 171 166 166 162 156 157 168 176 182 191 200 205 209 214 214 218 225 223 219 234 247 258 274 290 309 325 329 338 343 336 331 331 333 335 336 338 340 339 339 341 342 342 343 339 334 350 4 349 357
185 182 172 169 172 176 179 184 186 180 174 171 173 172 170 177 206 277 278 260 241 236 233 221 212 209 206 210 218 208 192 189 187 192 191 187 182 174 171 174 178 185 190 195 196 196 203 209 212 215 219 227 234 238 240 250 262 276 291 300 311 319 322 330 333 328 324 326 330 331 333 336 339 337 335 339 341 338 339 334 337 3 3 343 1
192 190 183 181 181 182 183 186 186 183 184 185 188 191 188 189 201 252 264 256 241 229 224 220 213 209 206 209 218 215 199 197 197 201 201 196 193 186 183 187 197 210 216 218 217 216 218 216 215 217 226 237 244 254 261 269 276 285 295 300 308 311 316 321 320 320 321 325 327 327 330 333 335 332 331 338 338 333 337 336 343 8 357 345 8
195 197 197 197 195 192 188 184 185 188 190 190 193 197 198 198 200 232 251 249 245 227 219 218 214 211 207 208 218 220 210 210 208 210 212 209 206 202 201 202 207 218 226 229 229 231 231 229 231 234 242 249 255 266 272 279 285 290 296 297 301 305 309 310 312 316 319 321 323 324 326 328 328 326 328 333 331 328 332 335 343 358 353 355 14
195 196 196 198 199 194 190 190 190 189 189 191 195 200 205 210 213 227 232 232 230 221 218 216 213 210 207 207 214 222 221 220 219 218 220 220 220 219 218 218 220 225 230 234 238 239 239 240 243 248 255 259 264 270 272 277 282 288 291 292 296 301 305 305 309 314 314 317 320 321 322 322 322 321 323 325 325 325 326 331 340 345 343 356 12
194 192 189 190 194 194 193 195 197 199 199 198 202 210 217 224 226 220 208 191 204 231 219 212 211 208 204 206 212 220 225 225 225 224 225 225 226 228 228 229 230 233 235 238 242 244 245 246 248 251 257 261 264 266 269 271 275 280 284 288 295 301 303 303 306 308 309 314 315 316 317 318 318 317 318 318 320 322 322 327 335 332 327 338 340
194 191 189 189 192 194 195 198 203 208 212 211 213 221 228 232 231 222 207 171 148 279 216 204 208 209 204 205 210 218 224 227 227 227 227 227 227 230 232 236 237 239 242 243 247 248 249 250 250 252 256 260 264 265 267 269 272 277 281 286 290 295 298 300 302 303 306 310 311 312 313 313 312 311 312 314 318 320 321 327 333 327 317 316 316
198 195 194 195 196 197 199 201 206 209 216 222 224 226 232 234 230 224 212 184 132 97 198 201 205 209 208 210 214 218 223 226 230 233 233 231 230 230 232 237 239 242 244 246 251 252 253 253 253 254 256 259 262 265 268 272 275 278 282 287 289 290 293 297 299 301 303 304 303 304 304 305 306 306 310 315 321 323 323 326 328 323 312 304 300
201 200 202 203 204 205 204 201 204 209 216 222 223 225 229 227 223 221 215 203 165 126 150 197 205 210 209 211 217 220 226 231 237 241 239 237 235 235 235 237 240 242 243 246 250 257 261 261 260 260 261 263 264 267 271 275 278 280 282 285 287 289 291 294 296 298 301 300 298 299 301 303 303 304 308 314 321 324 321 317 315 312 305 298 292
203 202 204 208 211 211 209 206 205 207 210 213 214 217 220 216 214 218 217 214 198 157 147 176 200 211 210 211 220 228 237 241 244 247 246 244 241 241 242 241 243 240 242 245 248 258 269 269 265 264 267 272 272 274 276 277 280 282 283 281 283 285 288 292 293 293 296 299 300 300 301 300 298 301 305 311 316 316 311 307 305 303 298 292 288
204 204 207 212 215 213 213 213 209 205 207 209 209 209 210 207 207 212 212 211 201 185 197 190 189 200 208 212 219 229 238 243 248 251 254 255 253 250 249 249 250 246 244 248 253 265 277 276 267 262 267 277 281 282 284 285 284 287 289 288 288 287 287 289 290 290 292 297 297 295 296 297 298 300 303 307 309 308 306 303 301 299 297 293 290
208 208 211 214 213 214 216 213 206 204 208 210 210 209 204 200 202 203 199 195 186 173 226 201 181 181 197 205 210 223 233 243 250 252 258 266 268 263 257 256 256 256 256 256 260 269 277 278 269 266 270 277 281 278 283 291 293 297 297 297 298 297 294 291 291 291 294 298 297 296 297 299 300 299 298 301 303 303 303 302 300 298 296 295 293
210 214 217 216 213 214 213 209 204 202 204 209 212 212 207 202 201 198 186 178 178 165 144 162 167 168 173 188 224 249 244 246 252 256 266 276 280 274 264 259 258 260 264 263 264 266 270 274 274 279 280 282 282 278 283 293 300 305 302 300 302 302 302 300 299 299 300 301 302 302 301 300 299 298 297 298 299 300 300 301 301 299 297 295 294
212 217 221 220 218 216 210 207 206 201 201 207 210 210 208 205 199 196 187 178 179 175 170 174 164 157 142 108 279 291 273 262 258 261 273 281 284 281 269 258 254 256 261 263 264 265 269 273 276 284 287 290 291 287 288 291 296 300 299 302 303 304 305 304 303 303 303 303 303 304 302 301 299 298 299 298 298 299 299 300 299 298 297 295 294
212 217 221 222 221 218 211 207 207 203 205 212 212 209 206 201 198 196 189 182 185 189 194 214 189 167 138 55 321 35 318 280 273 263 267 276 280 281 271 257 249 249 255 260 264 266 268 270 275 282 287 291 295 294 293 292 292 292 294 301 306 310 310 307 305 303 303 304 303 303 301 300 299 299 299 299 299 299 299 299 298 297 296 294 293
212 216 219 220 220 217 212 209 208 207 208 215 216 212 207 202 202 202 196 191 192 197 205 212 202 193 179 138 66 24 248 273 304 269 260 268 276 278 271 260 250 246 251 259 264 265 266 268 272 278 284 289 294 296 297 295 293 293 296 302 307 312 315 312 309 306 304 304 303 304 303 302 302 301 301 301 301 300 300 300 298 298 296 293 292
211 216 218 217 216 215 214 211 212 211 208 211 213 214 210 206 208 210 208 205 203 205 209 207 202 205 208 211 239 265 256 264 12 278 274 269 268 271 270 265 255 249 251 258 264 266 267 270 274 278 282 287 291 295 301 303 301 299 299 301 304 308 311 311 310 307 305 304 304 305 305 305 306 305 305 304 303 302 301 300 299 298 297 294 292
211 215 217 216 215 216 215 213 214 213 209 209 211 215 213 210 212 212 214 216 216 217 217 214 212 211 215 231 257 273 279 265 212 241 310 275 267 272 273 269 258 252 254 259 265 268 270 272 278 283 283 285 289 291 298 305 307 306 304 302 301 304 307 309 311 310 308 307 307 307 308 309 309 309 309 307 306 305 304 302 301 300 298 297 295
211 214 217 217 217 217 214 212 215 215 213 213 212 213 212 212 213 211 214 218 219 225 227 224 223 222 223 235 262 282 280 267 254 249 218 251 287 287 287 281 261 253 257 261 264 268 272 274 279 284 287 287 288 289 293 300 305 309 311 309 305 303 306 309 312 314 313 312 312 312 312 312 312 312 312 311 310 308 307 306 304 303 301 300 298
210 213 217 218 217 218 217 216 218 218 218 219 218 216 214 215 216 213 216 218 217 226 229 227 228 233 241 244 256 275 276 274 272 251 202 183 282 286 317 310 274 262 261 261 263 266 271 275 278 280 284 286 287 288 290 295 299 305 311 313 309 308 309 310 312 314 315 315 315 314 314 314 314 314 313 313 312 311 311 309 308 307 305 304 302
209 212 216 217 217 219 222 222 223 223 223 224 222 218 215 214 216 218 221 221 220 220 220 222 227 232 239 241 247 260 264 264 255 235 230 27 250 283 300 291 287 288 276 266 265 268 272 276 279 278 280 284 287 289 291 295 299 303 308 311 310 311 312 312 313 314 314 315 315 315 315 315 315 315 314 314 314 313 313 312 311 310 308 307 306
209 211 214 216 217 219 223 226 228 227 226 227 224 222 221 220 221 223 223 224 223 221 213 214 222 225 227 233 244 254 253 257 262 267 304 328 292 282 274 268 295 316 319 295 279 274 273 276 279 280 281 284 288 291 294 297 301 304 308 310 310 312 314 314 315 316 316 316 316 316 316 316 316 316 316 315 315 315 315 314 314 313 312 310 309
211 211 211 212 215 217 222 226 229 228 228 229 228 227 230 233 232 229 227 227 228 226 220 218 223 223 225 233 245 251 246 246 269 301 320 314 292 283 290 307 310 320 338 330 306 287 279 278 281 284 284 286 288 290 292 296 301 305 308 310 313 314 315 316 316 316 317 317 317 318 319 320 319 319 319 318 317 317 317 317 316 316 315 314 312
214 213 211 210 212 217 222 226 228 231 231 231 232 233 238 242 242 239 234 230 228 227 227 227 228 227 230 237 245 249 243 242 265 293 311 310 298 290 300 316 316 320 327 331 327 311 297 293 294 294 292 290 290 290 289 292 299 305 307 308 311 313 314 316 316 316 317 318 320 321 321 322 322 322 321 320 320 319 320 320 319 319 318 317 316
216 216 214 212 214 218 223 227 230 233 233 232 233 237 243 249 250 247 240 233 227 227 232 234 232 233 236 239 245 248 242 246 266 286 303 306 291 278 289 312 316 318 319 319 320 315 311 312 312 309 306 300 295 292 290 291 295 302 305 305 308 311 313 315 316 317 318 320 320 321 321 321 321 322 322 322 323 323 323 323 322 322 322 322 320
220 219 217 215 217 220 223 227 230 234 235 232 233 237 244 252 255 248 240 235 231 232 237 237 236 239 239 241 249 248 241 249 266 280 299 307 296 280 278 296 320 323 326 314 307 308 310 317 321 318 316 312 303 297 294 292 293 297 302 305 309 312 314 316 318 320 320 320 320 321 321 321 322 323 325 326 326 326 326 326 325 325 326 327 327
223 223 221 219 220 222 225 228 231 234 235 232 233 235 240 250 251 243 239 238 237 237 239 238 240 243 241 245 253 249 244 252 262 269 287 306 307 288 270 260 254 299 334 328 310 309 311 316 328 331 336 338 328 317 309 303 300 301 304 309 311 315 320 322 324 324 323 323 324 325 326 328 330 332 332 331 331 330 329 329 329 329 330 330 329
224 224 224 223 223 225 227 230 232 235 235 233 232 233 237 244 245 240 242 242 239 238 239 239 243 245 243 246 252 253 251 254 256 260 275 296 308 294 268 262 252 223 292 319 298 294 299 304 310 323 346 354 347 339 333 326 320 314 313 314 315 320 324 326 327 328 330 333 335 337 338 340 340 339 337 335 333 331 330 330 330 329 329 328 327
225 225 226 226 226 228 229 231 234 236 237 234 229 230 234 241 244 244 246 244 239 237 239 242 245 245 245 246 251 255 256 257 255 258 268 281 296 295 269 263 264 249 232 248 281 288 288 296 299 303 322 336 340 339 335 333 330 327 325 323 324 327 329 330 334 338 341 343 343 344 343 342 340 338 335 332 330 329 329 329 329 330 332 335 338
226 227 226 226 228 230 230 232 235 237 239 236 229 229 234 241 244 244 244 243 239 238 240 243 244 245 247 249 252 255 258 261 258 257 261 264 269 272 261 259 265 266 256 237 242 278 284 299 309 313 319 321 322 325 328 337 342 341 340 337 338 340 340 341 344 346 346 345 343 342 340 338 335 333 331 328 327 327 329 331 335 340 345 349 349
227 227 227 227 228 230 231 233 235 237 239 238 233 233 236 240 244 244 244 244 242 241 242 242 241 245 250 252 253 254 257 262 260 256 255 255 257 256 255 260 262 264 260 239 230 267 283 297 308 318 327 323 318 322 331 343 350 348 345 345 348 348 348 348 348 348 346 342 339 339 337 334 332 330 328 326 327 331 338 345 350 353 352 352 351
228 227 228 228 228 229 230 231 233 235 238 239 238 238 239 241 243 244 245 246 246 245 245 244 244 246 250 254 254 253 255 259 262 259 254 252 255 255 252 255 257 260 261 250 248 271 289 300 308 317 325 324 320 324 334 340 344 344 345 349 351 350 352 352 350 348 344 338 337 337 335 332 329 327 327 332 341 351 359 360 357 356 354 354 352
228 229 229 229 228 228 228 229 231 233 236 239 240 241 242 243 244 244 246 248 249 250 249 250 249 249 251 254 255 254 255 258 260 261 260 255 253 256 255 252 256 262 267 265 261 269 286 298 305 309 316 320 319 322 330 334 336 339 342 348 352 352 355 353 348 346 342 337 337 336 336 333 332 337 348 4 15 14 6 0 359 360 357 353 352
229 230 230 230 229 228 229 230 231 233 235 238 240 242 244 245 246 247 247 249 250 253 254 252 251 251 251 251 254 256 257 258 258 259 261 259 256 258 260 259 260 264 268 271 269 266 278 290 297 302 308 314 314 317 324 327 330 334 337 343 350 354 356 352 347 347 341 335 338 341 343 344 351 12 31 33 24 9 2 3 3 2 360 359 360
227 229 230 230 230 230 231 232 234 236 237 238 239 242 244 246 247 248 249 250 252 254 255 254 251 252 251 250 253 256 259 260 258 256 257 259 258 259 262 264 264 265 268 272 273 272 273 280 288 295 301 305 308 313 318 321 326 329 333 340 347 351 353 351 350 348 338 335 345 353 355 1 24 44 42 27 13 6 6 9 11 11 12 10 8
226 228 228 228 229 231 233 235 237 239 241 242 242 242 244 246 247 248 250 252 254 255 257 256 254 253 253 252 254 256 259 261 258 255 256 258 260 261 263 266 266 267 269 271 275 277 274 275 283 292 298 301 304 309 314 318 322 326 331 339 345 347 350 352 352 342 335 342 0 6 8 28 51 49 32 15 9 11 16 21 23 20 16 11 7
227 228 229 229 230 232 235 238 241 243 244 244 244 245 246 246 246 247 249 252 255 257 258 258 257 257 256 256 257 257 258 260 258 256 256 259 261 261 262 265 268 270 271 271 274 277 276 277 282 288 294 298 302 306 311 315 320 325 331 337 341 345 347 348 346 339 340 354 9 13 22 52 59 42 19 9 13 20 27 29 25 20 15 11 5
230 230 230 231 233 234 237 239 242 244 244 244 245 245 246 246 246 247 248 251 254 256 258 259 259 259 258 258 259 258 257 258 259 259 260 261 261 261 261 264 268 270 271 271 273 273 274 277 279 283 290 295 299 301 304 310 316 324 332 334 335 339 341 337 337 340 345 359 8 16 36 64 60 36 12 12 22 27 30 27 22 20 16 11 6
232 232 232 233 235 236 238 239 241 242 243 243 244 244 245 246 246 247 248 250 253 255 257 258 258 259 260 260 261 260 258 257 258 260 262 264 265 264 264 263 265 268 269 271 273 272 272 275 277 281 285 289 293 295 299 307 315 324 331 329 327 329 329 326 332 338 345 356 4 16 45 69 60 32 13 23 36 34 31 25 20 19 15 12 10
232 234 235 235 236 236 237 239 240 240 241 242 243 244 244 245 244 246 248 249 251 253 255 257 258 259 261 261 262 263 262 260 260 261 262 265 268 268 267 266 264 266 267 269 270 269 269 271 273 277 281 284 289 292 296 305 313 318 323 322 320 321 318 319 327 334 344 353 358 13 46 65 56 30 15 29 45 39 31 25 21 21 17 13 12
230 232 234 236 236 237 238 238 239 239 240 241 243 244 244 244 244 245 246 247 248 250 252 254 256 258 260 262 263 265 265 265 265 265 264 264 266 268 270 269 268 267 267 267 265 265 265 267 271 274 276 280 286 289 293 301 308 312 315 314 314 314 313 318 326 330 343 350 351 6 42 62 55 32 17 31 49 39 31 28 25 24 19 13 12
231 231 233 234 236 237 238 238 239 239 240 241 242 243 244 245 245 244 244 246 247 248 249 251 254 257 258 260 262 264 265 266 267 267 266 266 265 266 268 269 268 268 268 267 266 265 264 265 269 272 272 276 284 288 291 297 303 306 309 309 308 308 310 315 319 317 329 344 344 354 23 54 53 32 17 35 56 39 34 35 28 22 16 13 12
230 231 232 233 235 236 237 238 239 239 241 243 243 244 245 245 245 244 243 244 245 246 248 250 252 255 256 258 260 261 262 264 266 267 268 268 268 267 268 269 268 268 268 268 267 267 266 266 268 271 271 274 282 286 289 294 297 299 302 304 302 304 304 301 300 300 308 329 332 337 354 40 53 31 21 66 75 45 40 36 21 15 13 14 13
229 230 232 233 234 235 235 236 238 239 241 243 244 244 245 246 246 244 242 242 243 245 247 249 251 253 255 256 256 258 260 262 264 265 266 268 270 270 269 269 269 268 268 269 269 269 269 267 267 270 273 274 278 284 288 290 290 291 293 297 300 302 298 294 293 293 296 312 318 322 312 249 46 26 33 122 103 57 42 28 13 11 15 15 13
227 229 231 232 233 235 235 236 237 239 241 242 244 245 245 246 246 245 243 242 242 243 246 248 250 252 253 254 254 256 259 261 262 263 264 266 269 270 271 270 270 271 271 270 270 270 270 268 266 269 274 275 276 284 289 287 285 287 290 295 299 300 297 294 291 283 283 298 305 299 258 226 270 9 76 152 128 68 33 24 15 14 15 13 12
226 228 229 231 232 233 235 235 236 239 241 242 244 245 246 247 247 246 245 243 242 243 245 247 248 250 252 253 252 254 257 260 261 262 263 265 267 269 270 271 272 274 274 272 271 272 274 275 273 273 277 278 279 284 287 285 284 288 291 294 296 296 293 287 280 271 269 281 286 275 238 226 259 341 152 158 145 76 23 27 20 13 13 14 16
227 228 228 230 231 232 234 234 235 237 240 242 243 244 246 247 246 245 244 243 242 242 244 246 247 249 251 251 251 252 255 258 260 261 262 263 264 265 267 270 271 273 274 274 272 273 276 279 281 280 281 282 281 282 283 282 283 287 290 291 290 286 277 267 266 264 257 261 265 253 229 229 259 284 175 165 154 14 3 20 19 16 17 19 23
226 227 228 229 230 231 232 232 233 236 239 240 242 243 245 246 245 244 243 241 241 241 244 246 247 248 249 250 250 251 252 255 259 260 261 259 259 261 264 267 269 271 273 275 274 274 275 277 279 281 282 283 282 282 281 280 281 282 282 281 281 276 257 247 254 254 245 245 245 232 224 230 256 264 208 185 170 345 344 354 2 21 28 26 27
225 227 228 229 230 230 231 232 233 234 237 239 240 241 244 244 244 243 241 239 239 241 244 246 247 248 249 250 250 250 251 254 257 259 259 257 256 257 259 261 264 267 272 274 274 274 275 276 276 277 279 280 280 281 280 278 277 276 274 275 277 270 250 243 249 247 238 238 230 219 216 229 246 252 218 199 201 251 307 322 342 22 36 34 33
226 227 228 229 230 231 231 232 234 234 236 239 239 240 242 243 242 241 239 236 237 240 242 245 247 248 249 250 250 249 250 254 256 258 257 255 254 255 256 256 256 262 269 272 273 274 275 275 275 276 277 278 278 278 277 276 275 273 273 276 276 264 249 247 248 237 227 235 224 213 210 224 233 228 210 201 209 221 242 269 299 5 31 38 41